Regional Weather Roundup
Issued by NWS

Home | Current Version | Previous Version | Graphics & Text | Print | Product List | Glossary On
Versions: 1 2 3 4 5 6 7 8 9 10 11 12 13 14 15 16 17 18 19 20 21 22 23 24 25 26 27 28 29 30 31 32 33 34 35 36 37 38 39 40 41 42 43 44 45 46 47 48 49 50
000
ASUS43 KLOT 291300
RWRIL

ILLINOIS REGIONAL WEATHER ROUNDUP
NATIONAL WEATHER SERVICE CHICAGO/ROMEOVILLE IL
800 AM CDT FRI AUG 29 2014

NOTE: "FAIR" INDICATES FEW OR NO CLOUDS BELOW 12,000 FEET WITH NO
SIGNIFICANT WEATHER AND/OR OBSTRUCTIONS TO VISIBILITY.

* THESE STATIONS ARE NOT UNDER NWS QUALITY CONTROL. THEY ALSO MAY NOT
  REPORT WEATHER SUCH AS PRECIPITATION OR FOG.

ILZ001-002-007-009-015-016-024-291400-
NORTHWEST ILLINOIS

CITY           SKY/WX    TMP DP  RH WIND       PRES   REMARKS
MOLINE         MOSUNNY   73  68  84 S7        29.92R
STERLING*      MOSUNNY   70  68  94 SE5       29.95S
$$

ILZ003-004-008-010-011-017-018-291400-
NORTH CENTRAL ILLINOIS

CITY           SKY/WX    TMP DP  RH WIND       PRES   REMARKS
ROCKFORD       CLOUDY    70  67  90 S8        29.98R FOG
$$

ILZ005-006-012>014-019>023-291400-
NORTHEAST ILLINOIS

CITY           SKY/WX    TMP DP  RH WIND       PRES   REMARKS
CHICAGO-OHARE  CLOUDY    72  64  76 S9        29.98S
CHICAGO-MIDWAY CLOUDY    73  66  78 S7        29.99S
AURORA         PTSUNNY   72  68  87 SE8       29.99R FOG
WAUKEGAN       PTSUNNY   71  65  81 S7        29.98S
DUPAGE AIRPORT CLOUDY    72  68  87 SE7       29.98S
WHEELING       CLOUDY    73  66  78 S9        30.00S
NORTHERLY ISL    N/A     71  65  81 SE7         N/A
$$

LMZ740>746-291400-
SOUTHERN LAKE MICHIGAN

STATION/POSITION SKY/WX   TEMP    WIND        PRES    VSBY  WAVE
                          AIR SEA DIR/SP/G                  HT/PER
                          (F)     (DEG/KT/KT) (MB)    (MI)  (FT/S)
SOUTHERN BUOY              69 69  150/ 16/ 19 1015.6R         3/ 4
WAUKEGAN HARBOR            72     170/ 12/ 14   N/A
HARRISON CRIB              71     170/ 17/ 20   N/A
BURNHAM HARBOR             71     150/  9/ 10   N/A
CALUMET HARBOR             71     160/  7/  9 1014.8R
MICHIGAN CITY              69     120/ 12/ 18   N/A
MICHIGAN CITY 6N           70 71  160/ 12/ 16   N/A           1/ 2
ST. JOSEPH                 69 70  150/ 14/ 17   N/A           1/ 2
$$

ILZ025>027-034>036-040-047-049-050-058-095>099-291400-
WEST-CENTRAL ILLINOIS

CITY           SKY/WX    TMP DP  RH WIND       PRES   REMARKS
QUINCY         SUNNY     73  70  90 S7        29.94R FOG
MACOMB*        SUNNY     71  70  97 S8        29.97R FOG
$$

ILZ028>032-037-038-041>044-048-051>054-059>061-291400-
CENTRAL ILLINOIS

CITY           SKY/WX    TMP DP  RH WIND       PRES   REMARKS
DECATUR        CLOUDY    73  70  90 SE5       30.00S
PEORIA         PTSUNNY   75  69  81 S7        29.96F
SPRINGFIELD    LGT RAIN  73  71  93 S7        29.97F
TAYLORVILLE    NOT AVBL
$$

ILZ033-039-045-046-055>057-062-063-291400-
EAST-CENTRAL ILLINOIS

CITY           SKY/WX    TMP DP  RH WIND       PRES   REMARKS
CHAMPAIGN      PTSUNNY   72  70  93 SE8       30.01S FOG
MATTOON        CLOUDY    73  70  90 SE7       30.00S
$$

ILZ079-100>102-291400-
SOUTHWEST ILLINOIS

CITY           SKY/WX    TMP DP  RH WIND       PRES   REMARKS
ALTON          MOSUNNY   73  72  94 SE6       29.98S FOG
BELLEVILLE     SUNNY     74  74 100 VRB1      29.97S
$$

ILZ064>066-069>071-074>076-080>082-084>086-088>090-092>094-291400-
SOUTH-CENTRAL ILLINOIS

CITY           SKY/WX    TMP DP  RH WIND       PRES   REMARKS
CARBONDALE     SUNNY     74  71  91 CALM      29.99R FOG
MARION         SUNNY     75  72  88 CALM      30.00S FOG
MT. VERNON     PTSUNNY   75  70  83 SE5       30.01R
$$

ILZ067-068-072-073-078-083-087-091-291400-
SOUTHEAST ILLINOIS

CITY           SKY/WX    TMP DP  RH WIND       PRES   REMARKS
LAWRENCEVILLE  SUNNY     77  72  84 SE6       30.01S HAZE
$$

ABBREVIATIONS USED IN REMARKS
   TC - TEMPERATURE IN CELSIUS
  WCI - WIND CHILL INDEX
   HX - HEAT INDEX
  VSB - VISIBILITY
$$




USA.gov is the U.S. government's official web portal to all federal, state and local government web resources and services.